Time,TemperatureF,DewpointF,PressureIn,WindDirection,WindDirectionDegrees,WindSpeedMPH,WindSpeedGustMPH,Humidity,HourlyPrecipIn,Conditions,Clouds,dailyrainin,SoftwareType,DateUTC
2013-08-14 00:00:00,71.0,-99.9,-100.00,SSW,205,4.0,-999.0,-999,-99.99,,,-99.99,,2013-08-14 07:00:00,
2013-08-14 00:52:00,71.0,-99.9,-100.00,SSW,205,4.0,-999.0,-999,-99.99,,,-99.99,,2013-08-14 07:52:00,
2013-08-14 01:00:00,68.0,-99.9,-100.00,SSW,201,2.0,-999.0,-999,-99.99,,,-99.99,,2013-08-14 08:00:00,
2013-08-14 01:52:00,68.0,-99.9,-100.00,SSW,201,2.0,-999.0,-999,-99.99,,,-99.99,,2013-08-14 08:52:00,
2013-08-14 04:00:00,62.0,-99.9,-100.00,South,181,1.0,-999.0,-999,-99.99,,,-99.99,,2013-08-14 11:00:00,
2013-08-14 04:52:00,62.0,-99.9,-100.00,South,181,1.0,-999.0,-999,-99.99,,,-99.99,,2013-08-14 11:52:00,
2013-08-14 05:00:00,61.0,-99.9,-100.00,SW,231,1.0,-999.0,-999,-99.99,,,-99.99,,2013-08-14 12:00:00,
2013-08-14 05:52:00,61.0,-99.9,-100.00,SW,231,1.0,-999.0,-999,-99.99,,,-99.99,,2013-08-14 12:52:00,
2013-08-14 06:00:00,60.0,-99.9,-100.00,WSW,255,1.0,-999.0,-999,-99.99,,,-99.99,,2013-08-14 13:00:00,
2013-08-14 06:52:00,60.0,-99.9,-100.00,WSW,255,1.0,-999.0,-999,-99.99,,,-99.99,,2013-08-14 13:52:00,
2013-08-14 07:00:00,60.0,-99.9,-100.00,WSW,246,1.0,-999.0,-999,-99.99,,,-99.99,,2013-08-14 14:00:00,
2013-08-14 07:52:00,60.0,-99.9,-100.00,WSW,246,1.0,-999.0,-999,-99.99,,,-99.99,,2013-08-14 14:52:00,
2013-08-14 09:00:00,71.0,-99.9,-100.00,NE,54,1.0,-999.0,-999,-99.99,,,-99.99,,2013-08-14 16:00:00,
2013-08-14 10:00:00,76.0,-99.9,-100.00,SW,219,1.0,-999.0,-999,-99.99,,,-99.99,,2013-08-14 17:00:00,
2013-08-14 10:55:00,76.0,-99.9,-100.00,SW,219,1.0,-999.0,-999,-99.99,,,-99.99,,2013-08-14 17:55:00,
2013-08-14 11:00:00,81.0,-99.9,-100.00,SSW,203,2.0,-999.0,-999,-99.99,,,-99.99,,2013-08-14 18:00:00,
2013-08-14 12:00:00,85.0,-99.9,-100.00,South,180,2.0,-999.0,-999,-99.99,,,-99.99,,2013-08-14 19:00:00,
2013-08-14 12:59:00,85.0,-99.9,-100.00,South,180,2.0,-999.0,-999,-99.99,,,-99.99,,2013-08-14 19:59:00,
2013-08-14 17:00:00,94.0,-99.9,-100.00,SSW,207,7.0,-999.0,-999,-99.99,,,-99.99,,2013-08-15 00:00:00,
2013-08-14 17:52:00,94.0,-99.9,-100.00,SSW,207,7.0,-999.0,-999,-99.99,,,-99.99,,2013-08-15 00:52:00,
2013-08-14 18:00:00,93.0,-99.9,-100.00,SW,220,8.0,-999.0,-999,-99.99,,,-99.99,,2013-08-15 01:00:00,
2013-08-14 18:52:00,93.0,-99.9,-100.00,SW,220,8.0,-999.0,-999,-99.99,,,-99.99,,2013-08-15 01:52:00,
2013-08-14 21:00:00,79.0,-99.9,-100.00,SSW,203,4.0,-999.0,-999,-99.99,,,-99.99,,2013-08-15 04:00:00,
2013-08-14 21:53:00,79.0,-99.9,-100.00,SSW,203,4.0,-999.0,-999,-99.99,,,-99.99,,2013-08-15 04:53:00,
2013-08-14 22:00:00,74.0,-99.9,-100.00,South,188,2.0,-999.0,-999,-99.99,,,-99.99,,2013-08-15 05:00:00,
2013-08-14 22:52:00,74.0,-99.9,-100.00,South,188,2.0,-999.0,-999,-99.99,,,-99.99,,2013-08-15 05:52:00,